Location: Unnamed
(25.2826°S, 57.6099°W)
Time: 15:27:01
(UTC-04:00)

Hubble Space Telescope - Visible Passes

Search period start: 18 January 2026 00:00
Search period end: 28 January 2026 00:00
Orbit: 479 x 481 km, 28.5° (Epoch: 18 January)

Date Brightness Start Highest point End Pass type
(mag) Time Alt. Az. Time Alt. Az. Time Alt. Az.
23 Jan 2.8 04:37:07 10° NNW 04:39:30 16° NNE 04:41:54 10° ENE visible
24 Jan 2.7 04:08:08 13° N 04:09:43 16° NNE 04:12:07 10° ENE visible
25 Jan 2.7 03:40:02 16° NNE 03:40:02 16° NNE 03:42:20 10° ENE visible
26 Jan 3.2 03:11:54 12° ENE 03:11:54 12° ENE 03:12:32 10° ENE visible
26 Jan 0.7 04:46:01 11° WNW 04:49:38 64° NNE 04:53:25 10° E visible
27 Jan 0.6 04:17:50 26° WNW 04:19:47 64° NNE 04:23:35 10° E visible
